STARLINK-34746, 64847

Orbit data source: Space-Track

STARLINK-34746, 64847 is a payload satellite owned by SpaceX/Seattle (US) in SSO that was launched on Sat, 19 Jul 2025 UTC via an FALCON 9 launch vehicle from the Air Force Western Test Range (AFWTR). Payload-class satellites include a variety of spacecraft equipped with specific instruments for various scientific and technological missions. These include communications satellites like Starlink; space stations such as the ISS; scientific satellites like the Hubble; Earth observation satellites from companies like Planet Labs, Umbra, and HawkEye 360; GPS; miniature CubeSats for education and research; and military/defense satellites.

Loading next visibility...
Identifier
64847, 2025-152F
Orbit
SSO
Country
Flag of USUS
Related business
Manufacturer
SpaceX/Seattle
Mission
Operational Commercial Communications
Bus & Motor
STARLINK V2MO, Unknown motor
Mass
575 kg wet, ~530 kg dry
Launch date (UTC)
2025-07-19 (9 months ago)
Launch vehicle
FALCON 9
Launch site
Air Force Western Test Range (AFWTR)
Object type
Payload
Rocket body
Debris
Shape & HBR
Box + 2 Pan, 17.7 m
Radar Cross Section
36.964 m², Large (>1 m²)

Expand to show TLE details & history
Last TLE update: 19 hours ago

TLE from 19 hours ago
0 STARLINK-34746
1 64847U 25152F   26094.57812521  .00003490  00000-0  24599-3 0  9994
2 64847  97.6021 311.0355 0002720  87.4473 272.7065 15.05646420 39316
Epoch: 2026-04-04T13:52Z
TLE epoch observation values (Epoch: 2026-04-04T13:52:30.018Z)
Latitude
-0.00002°
Longitude
-89.98546°
Altitude
552.499 km
Speed
7.586 km/s
True Right ascension
20h 44m 08s
True Declination
0° 00' 00"
Sunlit
Object was in daylight at epoch
Visualization orbit readout
Latitude
Unknown
Longitude
Unknown
Altitude
Unknown
Speed
Unknown
Apparent Right ascension
Unknown
Apparent Declination
Unknown
Sunlit
N/A
Visualization observer readout
Local Sidereal Time
14:32:22
Azimuth
Unknown
Elevation
Unknown
Doppler factor
Unknown
Orbital elements
Apogee altitude
548.399 km
Perigee altitude
544.632 km
Semi-major axis
6,924.653 km
Eccentricity
0.00027
Inclination
97.6021°
RAAN
311.0355°
Arg. of periapsis
87.4473°
True anomaly
272.67537°
Mean anomaly
272.7065°
Eccentric anomaly
272.69093°
Mean motion
3.76657 °/min
Orbital period
95.58 mins
BSTAR
0.00024599
Loading maneuver chart data...
Computing Atmospheric mass density...
Loading historical data...
Loading historical data...
Loading historical data...
Loading historical data...
Loading historical data...
Loading historical data...
Loading historical data...

Documentation

Showing up to 5 results
|